Location: Newark
(9.4667°S, 159.8167°E)
Time: 15:23:55
(UTC+00:00)

Explorer 7 - Pass Details

Date: 20 November 2019
Orbit: 485 x 680 km, 50.3° (Epoch: 07 December)

Event Time Altitude Azimuth Distance (km) Brightness Sun altitude
Rises 10:04:11 0° 236° (WSW) 3,010 11.6 -36.5°
Reaches altitude 10° 10:06:48 10° 248° (WSW) 2,106 10.5 -37.1°
Enters shadow 10:08:17 17° 261° (W) 1,672 9.8 -37.4°
